Terug naar catalogus

STARLINK-35846

ActiefCommunicatieVLEO
NORAD 66367·PAYLOAD·🇺🇸 United States

Gelanceerd Nov 6, 2025 vanaf Vandenberg Space Force Base

Loading…

Volgende Passages (komende 24 uur)

TLE

VersSource: CelesTrak SupGP

Epoch: Sep 15, 2026, 03:36 UTC

1 66367C 25254V   26258.15048611 -.00030407  00000+0 -89867-3 0  2589
2 66367  53.1578  70.4605 0001165  89.8820 162.2035 15.34396175    13

Volg STARLINK-35846 in realtime met AllMySat

Download on the App Store